Location: *
(55.5817°S, 142.4781°W)
Time: 06:23:16
(UTC+00:00)

Cosmos 2061 Rocket - Pass Details

Date: 29 April 2025
Orbit: 966 x 1011 km, 82.9° (Epoch: 23 May)

Event Time Altitude Azimuth Distance (km) Brightness Sun altitude
Rises 14:41:32 0° 339° (NNW) 3,720 6.8 -18.5°
Reaches altitude 10° 14:44:06 10° 335° (NNW) 2,772 6.1 -18.1°
Maximum altitude 14:50:25 63° 254° (WSW) 1,114 4.0 -17.2°
Drops below altitude 10° 14:56:43 10° 172° (S) 2,770 6.4 -16.4°
Sets 14:59:18 0° 168° (SSE) 3,717 7.2 -16.0°
